SCP
0 0 0 0 0 0 1 1 1 1 1 1 1 1 1 1 1 1 1 1 1 1 1 1 1 0 0 0 0 0 0 0 0 0 0 0 0 0 0 0 0 0 0
0 0 0 0 0 0 0 1 1 1 1 1 1 1 1 1 1 1 1 1 1 1 1 1 0 0 0 0 0 0 0 0 0 0 0 0 0 0 0 0 0 0 0
0 0 0 0 0 0 0 0 0 0 0 1 1 1 1 1 1 1 1 1 1 1 1 0 0 0 0 0 0 0 0 0 0 0 0 -0 -0 0 0 0 0 0 0
0 0 0 0 0 0 0 0 0 0 0 0 0 0 0 1 1 1 1 1 0 0 0 0 0 0 0 0 0 0 0 0 0 0 -0 -0 -0 0 0 0 0 0 0
0 0 0 0 0 0 0 0 0 0 0 0 0 0 0 0 0 0 0 0 0 0 0 0 0 0 0 0 0 0 0 0 0 0 -0 -0 -0 0 0 0 0 0 0
0 0 0 0 0 0 0 0 0 0 0 0 0 0 0 0 0 0 0 0 0 0 0 0 0 0 0 0 0 0 0 0 0 0 0 0 0 0 0 0 0 0 0
0 0 0 0 0 0 0 0 0 0 0 0 0 0 0 0 0 0 0 0 0 0 0 0 0 0 0 0 0 0 0 0 0 0 0 0 0 0 0 0 0 0 0
0 0 0 0 1 1 0 0 0 0 0 0 0 0 0 0 0 0 0 0 0 0 0 0 0 0 0 0 0 0 0 0 0 0 0 0 0 0 0 0 0 0 0
0 0 0 0 0 0 0 0 0 0 0 0 0 0 0 0 0 0 0 0 0 0 0 0 0 0 0 0 0 0 0 0 0 0 0 0 0 0 0 0 0 0 0
0 0 0 0 0 0 0 0 0 0 0 0 0 0 0 0 0 0 0 0 0 0 0 0 0 0 0 0 0 0 0 0 0 0 0 0 0 0 0 0 0 0 0
0 0 0 0 0 0 0 0 0 0 0 0 0 0 0 0 0 0 0 0 0 0 0 0 0 0 0 0 0 0 0 0 0 0 0 0 0 0 0 0 0 0 0
0 0 0 0 0 0 0 0 0 0 0 0 0 0 0 0 0 0 0 0 -0 -0 -0 0 0 0 0 0 0 0 0 0 0 0 0 0 0 0 0 0 0 0 0
0 0 0 0 0 0 0 0 0 0 0 0 0 0 0 0 0 -0 -0 -0 -0 -0 -0 -0 -0 -0 0 0 0 0 0 0 0 0 0 0 0 0 0 0 0 0 0
0 0 0 0 0 0 0 0 0 0 0 0 0 0 0 0 0 -0 -0 -0 -0 -0 -0 -0 -0 -0 -0 0 0 0 0 0 0 0 0 0 0 1 1 1 1 1 1
0 0 0 0 0 0 0 0 0 0 0 0 0 0 0 0 0 0 -0 -0 -0 -0 0 0 0 0 0 0 0 0 0 0 0 0 0 0 0 1 1 1 1 1 1
0 0 0 0 1 1 1 0 0 0 0 0 0 0 0 0 0 0 0 0 0 0 0 0 0 0 0 0 0 0 0 0 0 0 0 0 0 0 1 1 1 1 1
1 1 1 1 1 1 1 1 0 0 0 0 0 0 0 0 0 0 0 0 0 0 0 0 0 0 0 0 0 0 0 0 0 0 0 0 0 0 0 1 1 1 1
1 1 1 1 1 1 1 1 0 0 0 0 0 0 0 0 0 0 0 0 0 0 0 0 0 0 0 0 0 0 0 0 0 0 0 0 0 0 0 0 0 0 1
1 1 1 1 1 1 1 1 1 0 0 0 0 0 0 0 0 0 0 0 0 0 0 0 0 0 0 0 0 0 0 0 0 0 0 0 0 0 0 0 0 0 0
2 2 2 2 2 2 1 1 1 1 0 0 0 0 0 0 0 0 0 0 0 0 0 0 0 0 0 0 0 0 0 0 0 0 0 0 0 0 0 0 0 0 0
2 2 3 3 3 2 2 1 1 1 0 0 0 0 0 0 0 0 0 0 0 0 0 0 0 0 0 0 0 0 0 0 0 0 0 0 0 0 0 0 0 0 0
2 2 3 3 3 3 2 1 1 1 0 0 0 0 0 0 0 0 0 0 0 0 0 0 0 0 0 0 0 0 0 0 0 0 0 0 0 0 0 0 0 0 0
1 2 2 3 3 2 2 1 1 0 0 0 0 0 0 0 0 0 0 0 0 0 0 0 0 0 0 0 0 0 0 0 0 0 0 0 0 0 0 0 0 0 0
1 2 2 2 2 2 1 1 0 0 0 0 0 0 0 0 0 0 0 0 0 0 0 0 0 0 0 0 0 0 0 0 0 0 0 0 0 0 0 0 0 0 0
1 1 2 2 1 1 1 1 0 0 0 0 0 0 0 0 0 0 0 0 0 0 0 0 0 0 0 0 0 0 0 0 0 0 0 0 0 0 0 0 0 0 0
1 1 1 1 1 1 0 0 0 0 0 0 0 0 0 0 0 0 0 0 0 0 0 0 0 0 0 0 0 0 0 0 0 0 0 0 0 0 0 0 0 0 0
Wind_Speed
5 6 12 14 15 15 15 15 15 15 15 15 15 15 15 14 13 13 12 12 11 11 12 12 12 12 12 12 12 12 11 11 11 11 11 11 11 12 12 12 12 9 12
9 9 13 14 15 15 15 16 16 15 15 14 14 14 14 13 13 12 11 11 11 11 12 12 11 11 11 11 11 11 10 10 9 9 9 9 10 11 11 11 11 8 12
11 9 12 14 15 15 15 16 16 16 15 15 14 14 13 13 12 12 11 11 10 10 11 11 11 10 10 10 10 9 8 8 7 7 8 5 6 9 10 11 11 11 11
12 8 10 15 15 16 16 15 16 16 16 15 15 14 14 13 12 12 12 11 10 10 10 10 9 9 9 9 8 7 7 6 6 7 4 3 4 8 10 11 11 11 11
10 8 11 17 16 16 16 16 16 16 16 16 15 14 13 13 12 11 11 11 10 9 9 8 8 7 7 7 6 5 5 4 5 5 4 3 3 7 10 11 11 11 11
10 8 11 17 17 16 16 16 16 16 16 15 15 14 13 12 11 11 11 10 9 8 8 7 6 6 5 5 5 4 3 2 3 3 3 4 4 8 10 11 11 11 10
10 8 10 15 16 16 17 16 16 15 15 14 14 13 12 11 10 10 10 9 8 7 6 6 5 4 4 3 3 3 2 2 3 2 2 4 5 9 11 11 11 11 10
11 9 9 16 18 17 17 16 15 14 14 13 12 12 11 10 9 9 9 8 7 6 5 4 3 2 2 2 2 2 1 1 2 2 2 3 5 8 10 10 9 10 10
9 9 8 9 13 16 16 16 15 14 13 13 12 11 10 10 9 9 8 7 6 5 4 3 2 1 1 1 1 1 1 1 2 1 1 2 5 7 9 8 8 8 8
8 8 7 7 7 8 10 16 16 15 14 13 13 13 12 11 10 9 7 6 6 5 4 2 1 0 1 2 2 2 2 2 1 0 1 2 5 7 7 7 8 7 7
9 8 7 7 7 7 7 11 13 14 14 13 11 13 10 4 4 5 6 7 7 5 4 2 1 1 2 3 4 3 2 1 0 0 1 3 5 7 7 7 7 7 7
14 12 8 8 8 7 8 6 5 6 6 6 4 6 4 3 3 4 4 7 7 5 3 2 1 2 2 2 3 4 1 0 0 1 1 4 5 6 6 6 7 7 7
14 13 12 10 9 9 6 5 4 3 4 5 5 5 4 3 2 2 1 1 1 1 1 2 2 2 2 2 2 2 1 1 0 0 1 3 4 6 7 6 7 7 7
12 14 13 12 10 9 6 6 5 4 4 4 5 5 4 3 2 2 1 1 1 1 1 1 1 2 2 2 2 2 2 1 1 1 1 3 3 5 7 7 7 7 7
15 15 14 13 12 10 8 6 7 6 5 5 5 5 5 4 4 3 2 1 1 1 1 1 1 2 2 3 3 3 3 3 3 2 2 4 4 4 6 7 7 7 7
16 16 14 15 13 11 9 7 6 6 5 5 5 6 6 4 4 3 3 2 2 2 2 2 2 2 3 3 4 5 5 4 4 4 3 5 8 7 6 6 7 7 7
16 15 14 14 12 11 10 8 5 5 4 4 3 4 5 5 4 3 3 2 2 2 3 3 4 4 4 4 5 5 4 4 4 5 4 4 4 7 8 7 6 6 6
12 13 13 13 13 11 8 6 3 3 3 2 2 3 5 5 4 4 3 2 3 3 3 3 3 3 4 3 3 3 3 3 5 5 5 5 4 5 7 9 8 7 5
13 12 12 11 12 11 8 5 4 3 3 3 2 2 3 4 4 4 3 3 4 4 3 3 3 3 2 2 2 3 3 3 4 5 6 7 6 6 6 9 12 11 10
11 11 11 10 9 9 7 5 3 3 2 2 1 2 4 4 5 5 4 4 5 5 4 3 4 4 2 1 2 3 3 3 4 5 6 6 7 8 8 8 7 9 13
10 11 11 11 9 9 7 6 5 3 2 2 2 3 3 5 6 5 5 5 4 4 4 4 3 4 3 2 2 2 2 3 4 4 4 5 7 6 7 7 6 5 5
10 9 9 9 9 9 7 6 4 4 3 3 3 4 4 5 6 6 7 5 5 5 5 4 3 3 2 3 1 2 1 1 2 3 3 4 4 4 5 5 5 4 4
7 8 8 8 8 8 8 7 6 5 3 3 3 3 4 5 6 7 7 6 5 5 5 4 3 4 3 2 3 2 2 1 2 1 1 2 2 2 2 2 3 3 3
4 6 7 8 8 8 8 8 8 5 3 3 3 3 5 6 6 6 7 7 6 5 5 4 3 3 4 2 2 3 2 2 1 2 2 2 2 2 3 3 4 4 4
7 8 9 10 10 8 8 8 7 6 5 5 5 6 5 5 6 6 7 6 6 5 5 5 5 4 3 3 2 1 2 2 1 2 4 4 4 4 4 4 4 5 6
10 10 10 11 10 9 9 7 7 8 9 9 8 6 5 4 4 6 6 6 6 5 5 5 5 5 3 3 2 1 2 1 2 2 4 5 6 6 5 5 5 6 6
Wind_Direction
158 159 155 151 146 139 133 126 120 114 109 108 109 112 115 118 121 122 121 118 115 111 108 104 101 100 99 99 100 101 102 105 109 111 113 114 119 123 121 120 117 118 118
145 152 155 152 146 140 135 130 125 119 115 112 110 110 112 113 114 115 115 114 113 111 109 105 103 101 100 99 100 102 104 107 111 117 116 114 121 129 128 126 126 127 125
138 149 152 152 146 140 136 132 129 126 123 120 117 116 116 116 116 116 117 116 115 114 112 109 106 104 102 102 102 104 105 106 111 114 106 100 120 133 136 134 135 133 130
139 144 152 151 146 142 138 135 134 132 131 128 127 127 126 126 125 126 126 125 123 121 120 116 112 109 107 107 107 108 110 114 119 123 122 135 144 143 143 142 142 141 138
139 143 157 153 149 145 142 140 139 138 137 137 136 136 136 135 134 135 136 135 133 130 128 125 120 116 113 111 110 110 114 124 133 135 150 157 160 159 155 153 153 152 149
143 149 158 155 152 149 147 145 144 144 144 144 144 144 144 144 144 145 146 145 144 141 138 133 127 121 114 109 106 106 112 132 126 149 168 174 176 178 168 164 163 161 160
147 150 157 156 155 154 152 151 150 150 150 150 151 152 152 152 153 154 155 156 155 153 151 145 137 126 114 102 94 88 84 99 118 143 167 175 183 186 178 174 172 170 169
150 151 157 160 159 159 159 157 156 155 155 156 156 157 158 159 161 162 164 165 165 165 164 158 144 128 105 86 77 70 82 88 108 122 146 167 183 186 184 180 177 176 177
152 155 160 164 164 165 164 162 161 161 161 161 161 162 164 166 170 173 174 176 177 179 181 176 159 124 60 29 18 21 22 78 100 129 162 160 175 179 183 180 179 182 183
157 165 165 165 163 163 166 169 169 169 168 168 170 171 174 177 180 184 183 189 193 199 205 206 205 339 4 351 348 354 1 57 85 116 164 183 184 186 187 184 184 186 187
175 180 176 171 167 163 166 177 175 176 177 176 178 181 179 177 183 189 193 202 208 214 223 233 271 329 349 354 355 359 22 54 55 266 207 204 194 196 194 192 193 193 191
187 188 185 179 174 169 176 173 170 173 175 175 173 178 168 164 182 191 209 215 220 224 237 252 287 342 9 11 359 9 26 22 213 238 227 213 206 208 206 203 204 204 201
188 187 189 186 180 178 178 169 170 167 168 175 178 175 162 159 171 183 168 244 262 260 14 19 19 22 21 13 359 2 10 24 30 308 279 237 224 224 224 220 219 219 215
186 193 190 188 185 186 182 176 174 174 176 181 184 176 165 168 179 180 182 181 150 90 85 57 31 10 13 11 14 26 32 38 36 20 321 293 259 247 245 239 233 233 230
192 195 193 189 190 188 185 182 181 183 184 184 182 182 179 181 187 186 190 182 170 142 136 119 78 50 38 32 37 46 42 38 32 25 357 345 335 303 279 268 258 250 244
198 197 193 193 193 188 189 186 182 184 184 182 187 188 186 186 185 183 184 180 172 155 135 112 95 83 63 57 51 47 42 38 33 28 21 6 1 350 326 303 286 270 255
199 197 193 194 192 192 192 187 182 180 178 186 191 190 191 190 186 176 168 162 146 120 109 95 87 82 75 65 57 49 42 35 36 33 30 23 9 4 358 344 326 306 279
196 196 195 194 190 190 187 176 170 161 160 174 180 182 190 189 177 161 152 140 113 104 100 96 89 81 69 66 62 43 31 30 38 43 44 39 31 23 16 16 13 9 350
197 193 192 193 184 180 170 157 148 138 145 151 162 172 179 169 159 143 135 121 113 100 90 98 73 82 79 75 89 68 36 38 42 59 59 53 48 43 38 33 34 31 26
194 192 191 188 177 163 153 137 123 100 104 107 135 153 150 142 138 130 119 113 109 103 94 90 87 66 65 56 82 75 53 47 55 57 60 57 51 50 47 43 35 28 28
190 190 188 184 172 159 158 153 147 144 129 97 102 110 132 133 131 128 120 109 105 105 110 115 104 81 50 14 79 68 54 54 67 56 57 60 54 47 46 44 39 33 20
192 186 181 178 166 162 158 145 130 121 110 89 72 80 97 114 121 123 118 120 118 113 105 104 118 114 61 26 85 94 35 18 32 42 42 60 51 40 37 33 32 28 18
183 174 170 162 152 144 133 115 103 89 82 96 90 83 80 91 106 119 124 124 122 117 116 107 113 126 121 56 42 112 122 245 311 336 4 33 25 29 10 344 351 343 336
152 138 132 129 125 123 123 126 129 137 141 133 119 105 95 94 102 108 111 112 112 109 112 108 97 102 116 112 67 50 85 138 180 314 308 303 317 320 315 311 308 297 292
98 102 105 106 104 107 112 126 123 119 113 110 106 102 92 86 91 99 106 107 106 104 105 102 98 91 93 111 116 112 95 78 122 212 283 303 306 287 280 277 275 277 277
89 92 98 101 95 92 94 101 108 118 127 130 128 122 108 96 91 95 102 101 102 102 103 104 102 100 101 109 118 133 150 175 203 211 254 278 289 290 287 274 268 270 273